{"data":{"norad_id":60989,"intl_designator":"2024-157A","name":"SENTINEL-2C","alt_names":[],"object_type":"PAYLOAD","status":"ACTIVE","operator":null,"country":"ESA","launch_date":"2024-09-05","launch_site_code":"FRGUI","launch_vehicle":null,"mission":null,"orbit_class":"UNKNOWN","rcs_meters":null,"size_class":null,"mass_kg":null,"dimensions":null,"purposes":["earth_obs"],"wikipedia_slug":null,"has_3d_model":false,"image_url":null,"decayed_at":null,"tle_current":{"epoch":"2026-05-25T03:58:21.781632Z","epoch_age_seconds":64718,"freshness":"FRESH","line1":"1 60989U 24157A   26145.16552988  .00000090  00000+0  50852-4 0  9995","line2":"2 60989  98.5694 220.2723 0001421  85.4150 274.7195 14.30822491 89695","mean_motion":14.30822491,"eccentricity":0.0001421,"inclination_deg":98.5694,"raan_deg":220.2723,"arg_perigee_deg":85.415,"mean_anomaly_deg":274.7195,"bstar":5.0852e-5,"rev_number":8969,"period_min":100.64141492447,"perigee_km":787.96444050323,"apogee_km":790.00133597546,"semimajor_km":7167.1198882393,"source":"CELESTRAK","updated_at":"2026-05-25T13:38:12.837400Z"}}}